Hourly Weather Roundup
Issued by NWS Central Illinois

Home | Current Version | Previous Version | Text Only | Print | Product List | Glossary On
Versions: 1 2 3 4 5 6 7 8 9 10 11 12 13 14 15 16 17 18 19 20 21 22 23 24 25 26 27 28 29 30 31 32 33 34 35 36 37 38 39 40 41 42 43 44 45 46 47 48 49 50
000
NZUS43 KILX 261610
HWRILX

AREA WEATHER ROUNDUP
NATIONAL WEATHER SERVICE, LINCOLN IL
1100 AM CDT TUE MAY 26 2015


CITY           SKY/WX    TMP DP  RH WIND       PRES   REMARKS
BLOOMINGTON    HVY RAIN  65  64  96 SW16G25   29.87R VSB 1
CHAMPAIGN      PTSUNNY   74  66  76 S30G36    29.87F
DANVILLE       CLOUDY    73  66  80 S18       29.88F
DECATUR        RAIN      68  65  90 SW22G35   29.88R FOG
EFFINGHAM      CLOUDY    73  65  74 SE12G24   29.92F
FLORA          CLOUDY    74  65  73 S16G26    29.93S
GALESBURG      CLOUDY    68  63  85 S15G23    29.78S
JACKSONVILLE   CLOUDY    75  65  71 SW21G30   29.83R
LACON          LGT RAIN  64  62  91 S7        29.80R
LAWRENCEVILLE  CLOUDY    75  65  70 S21G32    29.96S
LITCHFIELD     PTSUNNY   72  64  76 SW18G24   29.88S
$$


CITY           SKY/WX    TMP DP  RH WIND       PRES   REMARKS
LINCOLN        CLOUDY    67  64  88 S10       29.83F
MACOMB         CLOUDY    70  64  83 SW16      29.81R
MATTOON        CLOUDY    71  67  87 S14G25    29.90F
MT CARMEL AP   CLOUDY    79  64  61 S23G30    29.95F HX  81
OLNEY-NOBLE AP CLOUDY    73  64  73 S16G25    29.94S
PARIS          CLOUDY    74  66  76 S18G30    29.93S
PEORIA         CLOUDY    71  65  81 S14       29.81F
PONTIAC        LGT RAIN  73  69  87 S22       29.83F
RANTOUL        RAIN      74  68  80 S24       29.88F
ROBINSON       CLOUDY    74  65  74 S20G26    29.96S
SPRINGFIELD    PTSUNNY   73  65  75 S15G22    29.84S
TAYLORVILLE    CLOUDY    68  64  88 SW12G17   29.88S
$$

...REGIONAL REPORTS...


CITY           SKY/WX    TMP DP  RH WIND       PRES   REMARKS
CHICAGO O`HARE CLOUDY    72  65  78 SE13      29.84F
KANKAKEE       CLOUDY    74  67  78 S16G29    29.87F
MOLINE         CLOUDY    70  65  84 S13       29.74S
MOUNT VERNON   CLOUDY    73  64  73 SW14G26   29.94R
PITTSFIELD     CLOUDY    72  62  70 SW22G29   29.85R
QUINCY         CLOUDY    70  61  73 SW18G30   29.81R
ROCKFORD       LGT RAIN  71  65  81 SE13      29.79F
$$


CITY           SKY/WX    TMP DP  RH WIND       PRES   REMARKS
BURLINGTON     CLOUDY    70  64  81 SW18G29   29.75F
CEDAR RAPIDS   CLOUDY    68  65  90 S14       29.69F
DES MOINES     LGT RAIN  63  59  87 CALM      29.79R
KIRKSVILLE     PTSUNNY   69  61  75 SW12G23   29.83R
OTTUMWA        LGT RAIN  64  63  96 W17       29.74R
ST LOUIS       PTSUNNY   76  62  62 SW17G28   29.88S
$$


CITY           SKY/WX    TMP DP  RH WIND       PRES   REMARKS
TERRE HAUTE    CLOUDY    74  66  76 S15G21    29.94S
EVANSVILLE     LGT RAIN  74  66  76 SW21G29   30.00R
INDIANAPOLIS   PTSUNNY   78  64  61 S21G29    29.96F HX  80
LAFAYETTE      CLOUDY    74  66  76 S9G23     29.91F
MADISON        LGT RAIN  69  65  86 SE14      29.79S
MILWAUKEE      CLOUDY    68  62  81 SE16      29.87S
$$




USA.gov is the U.S. government's official web portal to all federal, state and local government web resources and services.